Stations météo

réclame
Mon MeteoGroup
Jaen, Espagne (8417): Température de l'air & dewpoint: 18.01.2018 10:00:00 - 24.01.2018 10:00:00 (CET)Jaen, Espagne (8417): Vitesse du vent: 18.01.2018 10:00:00 - 24.01.2018 10:00:00 (CET)Jaen, Espagne (8417): Direction du vent: 18.01.2018 10:00:00 - 24.01.2018 10:00:00 (CET)Jaen, Espagne (8417): reduced air pressure: 18.01.2018 10:00:00 - 24.01.2018 10:00:00 (CET)Jaen, Espagne (8417): visibility: 18.01.2018 10:00:00 - 24.01.2018 10:00:00 (CET)Jaen, Espagne (8417): Quantités de précipitations: 18.01.2018 10:00:00 - 24.01.2018 10:00:00 (CET)
Date & Time tt [°C] td [°C] ff [km/h] ff [knt] dd ppp [hPa] vv [km] rr [mm]
24.01.2018 10:00:00 11,0 4,9 2 1 E 1028,2 16 -
24.01.2018 09:00:00 8,8 3,0 0 0 N 1028,6 20 0,0
24.01.2018 08:00:00 8,5 2,9 2 1 S 1028,2 20 0,0
24.01.2018 07:00:00 8,2 3,8 2 1 S 1028,4 20 -
24.01.2018 06:00:00 8,5 3,9 2 1 SSE 1028,2 20 0,0
24.01.2018 05:00:00 8,7 3,7 0 0 N 1027,9 20 0,0
24.01.2018 04:00:00 9,1 4,1 2 1 WSW 1028,0 20 -
24.01.2018 03:00:00 9,2 4,8 4 2 SSW 1028,3 19 0,0
24.01.2018 02:00:00 9,4 4,6 5 3 S 1028,4 20 0,0
24.01.2018 01:00:00 9,9 3,8 4 2 SSW 1028,6 19 -
24.01.2018 00:00:00 10,6 4,1 4 2 SW 1028,6 20 0,0
23.01.2018 23:00:00 11,1 3,9 5 3 S 1028,4 20 0,0
23.01.2018 22:00:00 11,5 4,0 2 1 SW 1028,0 20 -
23.01.2018 21:00:00 12,0 3,7 5 3 WSW 1027,7 20 0,0
23.01.2018 20:00:00 12,5 4,9 5 3 WSW 1027,5 20 0,0
23.01.2018 19:00:00 12,8 5,0 5 3 SSW 1027,0 20 -
23.01.2018 18:00:00 14,2 8,6 4 2 SW 1026,3 20 0,0
23.01.2018 17:00:00 16,1 9,0 2 1 SW 1025,5 19 0,0
23.01.2018 16:00:00 17,0 7,9 4 2 N 1025,1 20 -
23.01.2018 15:00:00 17,0 7,6 5 3 NNW 1025,0 20 0,0
23.01.2018 14:00:00 15,8 6,8 4 2 N 1025,9 20 0,0
23.01.2018 13:00:00 14,7 5,7 4 2 NE 1026,8 20 -
23.01.2018 12:00:00 11,9 5,5 2 1 NNE 1028,2 16 0,0
23.01.2018 11:00:00 9,7 4,5 2 1 N 1028,8 16 0,0
23.01.2018 10:00:00 11,4 4,8 2 1 N 1027,9 20 -
23.01.2018 09:00:00 8,4 4,4 0 0 N 1028,4 19 0,0
23.01.2018 08:00:00 8,5 3,5 8 4 SSE 1028,1 20 0,0
23.01.2018 07:00:00 7,7 4,5 4 2 ESE 1027,8 19 -
23.01.2018 06:00:00 9,2 5,4 4 2 SSE 1027,3 12 0,0
23.01.2018 05:00:00 10,2 6,2 5 3 SSE 1027,4 19 0,0
23.01.2018 04:00:00 9,9 5,1 8 4 SE 1027,8 20 -
23.01.2018 03:00:00 8,6 5,0 2 1 E 1028,5 20 0,0
23.01.2018 02:00:00 8,4 5,1 5 3 W 1028,4 20 0,0
23.01.2018 01:00:00 8,9 5,8 4 2 SSW 1028,8 20 -
23.01.2018 00:00:00 9,1 5,8 4 2 SSW 1029,3 20 0,0
22.01.2018 23:00:00 9,5 6,0 4 2 S 1028,8 20 0,0
22.01.2018 22:00:00 10,3 5,7 4 2 S 1028,5 20 -
22.01.2018 21:00:00 10,8 6,0 4 2 SSW 1028,3 20 0,0
22.01.2018 20:00:00 11,2 5,5 8 4 SW 1028,0 20 0,0
22.01.2018 19:00:00 11,3 6,8 8 4 WSW 1027,8 20 -
22.01.2018 18:00:00 12,9 8,4 5 3 SSW 1027,0 19 0,0
22.01.2018 17:00:00 14,9 9,0 2 1 SW 1026,5 19 0,0
22.01.2018 16:00:00 16,2 9,1 2 1 SE 1026,1 20 -
22.01.2018 15:00:00 16,0 8,0 8 4 NNW 1026,5 20 0,0
22.01.2018 14:00:00 15,5 7,8 4 2 N 1027,3 16 0,0
22.01.2018 13:00:00 14,4 7,4 4 2 ENE 1028,3 20 -
22.01.2018 12:00:00 12,9 6,9 2 1 NE 1029,5 12 0,0
22.01.2018 11:00:00 11,1 6,4 2 1 ENE 1030,2 4,3 0,0
22.01.2018 10:00:00 8,7 5,6 2 1 WNW 1030,6 16 -
22.01.2018 09:00:00 6,9 5,2 4 2 W 1030,6 16 0,0
22.01.2018 08:00:00 6,8 5,3 8 4 WSW 1030,4 2,3 0,0
22.01.2018 07:00:00 6,7 4,7 4 2 ESE 1030,4 20 -
22.01.2018 06:00:00 6,7 4,7 2 1 SSE 1030,0 20 0,0
22.01.2018 05:00:00 7,0 4,8 2 1 WSW 1030,2 20 0,0
22.01.2018 04:00:00 7,2 4,8 4 2 SSW 1030,9 19 -
22.01.2018 03:00:00 7,6 4,9 4 2 WSW 1031,0 19 0,0
22.01.2018 02:00:00 8,2 5,0 5 3 WSW 1030,9 20 0,0
22.01.2018 01:00:00 8,0 4,8 5 3 WSW 1031,4 20 -
22.01.2018 00:00:00 9,3 5,1 8 4 SSW 1031,5 20 0,0
21.01.2018 23:00:00 8,4 4,8 4 2 SW 1031,5 19 0,0
21.01.2018 22:00:00 8,9 4,7 2 1 S 1031,4 20 -
21.01.2018 21:00:00 9,8 4,8 4 2 SSW 1031,1 19 0,0
21.01.2018 20:00:00 10,5 5,0 5 3 S 1030,4 20 0,0
21.01.2018 19:00:00 10,4 5,2 4 2 WSW 1030,1 20 -
21.01.2018 18:00:00 11,7 5,8 4 2 SSW 1029,3 20 0,0
21.01.2018 17:00:00 13,5 6,4 4 2 S 1028,7 19 0,0
21.01.2018 16:00:00 14,4 5,7 4 2 SSE 1028,5 19 -
21.01.2018 15:00:00 14,7 5,5 2 1 NE 1028,7 18 0,0
21.01.2018 14:00:00 13,1 6,0 2 1 ESE 1029,9 15 0,0
21.01.2018 13:00:00 11,5 6,2 4 2 N 1031,2 13 -
21.01.2018 12:00:00 9,7 3,9 4 2 NNE 1032,4 20 0,0
21.01.2018 11:00:00 9,4 3,6 4 2 N 1032,3 20 0,0
21.01.2018 10:00:00 8,3 3,3 2 1 ESE 1032,0 16 -
21.01.2018 09:00:00 6,1 3,1 5 3 W 1031,8 19 0,0
21.01.2018 08:00:00 5,7 1,8 2 1 SE 1031,5 20 0,0
21.01.2018 07:00:00 5,7 1,8 5 3 WSW 1030,9 19 -
21.01.2018 06:00:00 5,7 3,0 2 1 SSE 1031,0 17 0,0
21.01.2018 05:00:00 6,1 2,7 5 3 W 1031,0 20 0,0
21.01.2018 04:00:00 6,6 2,7 4 2 WSW 1031,1 20 -
21.01.2018 03:00:00 6,9 1,6 5 3 S 1031,2 19 0,0
21.01.2018 02:00:00 7,3 1,6 4 2 WSW 1031,2 20 0,0
21.01.2018 01:00:00 7,7 2,0 4 2 SSE 1031,6 20 -
21.01.2018 00:00:00 8,5 1,2 2 1 NE 1031,3 20 0,0
20.01.2018 23:00:00 9,3 -0,3 2 1 S 1030,9 20 0,0
20.01.2018 22:00:00 10,7 2,3 4 2 SSE 1030,5 20 -
20.01.2018 21:00:00 11,5 -1,3 16 9 W 1030,1 20 0,0
20.01.2018 20:00:00 11,0 0,1 5 3 WNW 1029,8 20 0,0
20.01.2018 19:00:00 11,4 1,6 2 1 SSE 1028,9 20 -
20.01.2018 18:00:00 12,5 4,0 2 1 WSW 1027,9 20 0,0
20.01.2018 17:00:00 14,7 7,5 8 4 WSW 1027,0 20 0,0
20.01.2018 16:00:00 14,8 6,6 13 7 NNW 1027,0 19 -
20.01.2018 15:00:00 14,6 7,9 5 3 NNW 1027,3 18 0,0
20.01.2018 14:00:00 13,9 7,0 4 2 NNE 1028,1 17 0,0
20.01.2018 13:00:00 13,9 7,0 4 2 E 1028,6 18 -
20.01.2018 12:00:00 12,2 6,2 4 2 N 1029,7 15 0,0
20.01.2018 11:00:00 10,7 5,7 2 1 ESE 1030,3 14 0,0
20.01.2018 10:00:00 8,2 5,5 2 1 ESE 1030,2 16 -
20.01.2018 09:00:00 5,6 4,6 5 3 WSW 1030,0 13 0,0
20.01.2018 08:00:00 5,8 4,1 2 1 SW 1029,0 18 0,0
20.01.2018 07:00:00 6,4 4,9 5 3 S 1028,3 17 -
20.01.2018 06:00:00 6,5 4,7 4 2 WSW 1027,9 14 0,0
20.01.2018 05:00:00 6,6 4,6 4 2 SW 1027,5 16 0,0
20.01.2018 04:00:00 7,2 5,0 4 2 SSW 1027,9 16 -
20.01.2018 03:00:00 7,1 4,7 2 1 SW 1027,9 18 0,0
20.01.2018 02:00:00 7,7 4,8 4 2 SSW 1027,2 19 0,0
20.01.2018 01:00:00 7,8 4,7 2 1 SW 1027,4 20 -
20.01.2018 00:00:00 8,2 4,6 5 3 WSW 1027,3 20 0,0
19.01.2018 23:00:00 8,4 5,0 8 4 S 1026,7 19 0,0
19.01.2018 22:00:00 8,9 5,1 5 3 WSW 1026,1 20 -
19.01.2018 21:00:00 9,2 5,4 8 4 SW 1025,1 20 0,0
19.01.2018 20:00:00 9,7 5,3 8 4 SW 1024,6 20 0,0
19.01.2018 19:00:00 9,7 4,5 8 4 WSW 1023,3 20 -
19.01.2018 18:00:00 11,3 5,4 4 2 SSW 1022,2 19 0,0
19.01.2018 17:00:00 13,4 5,5 4 2 W 1020,9 20 0,0
19.01.2018 16:00:00 14,3 4,6 2 1 S 1020,3 20 -
19.01.2018 15:00:00 13,3 6,9 9 5 NNW 1020,7 19 0,0
19.01.2018 14:00:00 12,9 6,5 11 6 NNW 1020,6 19 0,0
19.01.2018 13:00:00 12,1 5,9 4 2 NNE 1020,7 20 -
19.01.2018 12:00:00 11,1 6,4 4 2 E 1021,0 14 0,0
19.01.2018 11:00:00 9,6 5,8 4 2 SE 1021,8 19 0,0
19.01.2018 10:00:00 8,5 5,2 4 2 NNW 1021,3 18 -
19.01.2018 09:00:00 7,3 4,4 2 1 SSE 1020,9 19 0,0
19.01.2018 08:00:00 7,2 4,0 2 1 SE 1020,3 19 0,0
19.01.2018 07:00:00 7,3 3,7 4 2 SSW 1019,6 20 -
19.01.2018 06:00:00 7,0 4,0 4 2 SW 1019,7 20 0,0
19.01.2018 05:00:00 8,0 4,4 2 1 SE 1019,5 20 0,0
19.01.2018 04:00:00 8,8 4,4 2 1 WNW 1019,4 20 -
19.01.2018 03:00:00 8,9 4,1 4 2 SSE 1019,6 20 0,0
19.01.2018 02:00:00 9,1 4,9 2 1 SW 1019,8 20 0,0
19.01.2018 01:00:00 10,1 5,3 4 2 N 1019,7 20 -
19.01.2018 00:00:00 9,7 5,3 2 1 W 1020,1 20 0,0
18.01.2018 23:00:00 10,4 5,0 2 1 SSW 1019,8 20 0,0
18.01.2018 22:00:00 10,0 5,4 9 5 S 1020,2 20 -
18.01.2018 21:00:00 9,8 5,0 4 2 W 1020,9 20 0,0
18.01.2018 20:00:00 10,6 5,1 2 1 WSW 1020,8 20 0,0
18.01.2018 19:00:00 11,4 5,7 5 3 SW 1020,5 20 -
18.01.2018 18:00:00 11,9 6,0 5 3 SW 1020,7 20 0,0
18.01.2018 17:00:00 13,8 6,4 4 2 WSW 1019,9 20 0,0
18.01.2018 16:00:00 14,4 4,7 2 1 NNW 1019,5 20 -
18.01.2018 15:00:00 14,5 5,8 2 1 NW 1019,7 20 0,0
18.01.2018 14:00:00 14,4 6,0 4 2 ENE 1020,4 20 0,0
18.01.2018 13:00:00 14,3 6,1 4 2 E 1021,6 20 -
18.01.2018 12:00:00 - - - - - - - -
18.01.2018 11:00:00 13,6 3,4 15 8 ESE 1022,8 20 0,0
18.01.2018 10:00:00 12,7 2,2 22 12 SSE 1022,6 20 -

tt = Température de l'air
td = dewpoint
ff = Vitesse du vent
dd = Direction du vent
ppp = reduced air pressure
vv = visibility
rr = Quantités de précipitations

stations d'obs. à proximité